New Orleans Lakefront, LA

7:47 AM CST on November 15, 2019 (GMT -0600)
Lakefront

Weather History for KNEW - September, 2019

Change the Weather History Date:

Sunday, September 22, 2019

  Actual Average Record
Temperature  
Mean Temperature 83 °F 78 °F  
Max Temperature 93 °F 86 °F 95 °F (1993)
Min Temperature 73 °F 71 °F 56 °F (1983)
Degree Days  
Heating Degree Days 0 0  
Month to date heating degree days 0 0  
Since 1 July heating degree days 0 0  
Cooling Degree Days 18 13  
Month to date cooling degree days 466 345  
Year to date cooling degree days 3107 2591  
Growing Degree Days 31 (Base 50)    
Moisture  
Dew Point 69 °F    
Average Humidity 66    
Maximum Humidity 87    
Minimum Humidity 44    
Precipitation  
Precipitation 0.00 in 0.15 in 2.61 in (1946)
Month to date precipitation 0.19 3.89  
Year to date precipitation 46.95 48.10  
Snow  
Snow 0.00 in - - ()
Month to date snowfall 0.0  
Since 1 July snowfall 0.0  
Since 1 September snowfall 0.0  
Snow Depth 0.00 in    
Sea Level Pressure  
Sea Level Pressure 30.07 in    
Wind  
Wind Speed 7 mph (ESE)    
Max Wind Speed 15 mph    
Max Gust Speed 18 mph    
Visibility 10 miles    
Events      
T = Trace of Precipitation, MM = Missing Value Source: NWS Daily Summary

Daily Weather History Graph

Daily Weather History Graph

Search for Another Location

Airport or City:

Astronomy

Sep. 22, 2019 Rise Set
Actual Time 6:48 AM CDT 6:56 PM CDT
Civil Twilight 6:24 AM CDT 7:20 PM CDT
Nautical Twilight 5:56 AM CDT 7:48 PM CDT
Astronomical Twilight 5:28 AM CDT 8:16 PM CDT
Moon 12:03 AM CDT (9/22) 2:25 PM CDT (9/22)
Length of Visible Light 12h 56m
Length of Day
12h 08m
Last Quarter, 44% of the Moon is Illuminated
Sep 22
Last Quarter
Sep 28
New
Oct 5
First Quarter
Oct 13
Full
Oct 21
Last Quarter

Hourly Weather History & Observations

Time (CDT) Temp. Heat Index Dew Point Humidity Pressure Visibility Wind Dir Wind Speed Gust Speed Precip Events Conditions
12:53 AM 77.0 °F - 69.1 °F 76% 30.09 in 10.0 mi SE 6.9 mph - N/A   Clear
1:53 AM 77.0 °F - 69.1 °F 76% 30.07 in 10.0 mi SE 9.2 mph - N/A   Clear
2:53 AM 77.0 °F - 66.9 °F 71% 30.07 in 10.0 mi ESE 9.2 mph - N/A   Clear
3:53 AM 75.9 °F - 66.0 °F 71% 30.07 in 10.0 mi SE 4.6 mph - N/A   Clear
4:53 AM 75.9 °F - 66.9 °F 74% 30.08 in 10.0 mi ESE 5.8 mph - N/A   Clear
5:53 AM 75.9 °F - 68.0 °F 76% 30.07 in 10.0 mi ESE 8.1 mph - N/A   Clear
6:53 AM 75.0 °F - 68.0 °F 79% 30.08 in 9.0 mi SE 4.6 mph - N/A   Clear
7:53 AM 78.1 °F - 70.0 °F 76% 30.09 in 7.0 mi SSE 4.6 mph - N/A   Partly Cloudy
8:53 AM 81.0 °F 84.4 °F 70.0 °F 69% 30.11 in 10.0 mi East 3.5 mph - N/A   Clear
9:53 AM 84.0 °F 87.0 °F 68.0 °F 58% 30.11 in 10.0 mi SE 8.1 mph - N/A   Clear
10:53 AM 84.9 °F 88.8 °F 69.1 °F 59% 30.10 in 10.0 mi East 9.2 mph - N/A   Partly Cloudy
11:53 AM 87.1 °F 91.3 °F 69.1 °F 55% 30.09 in 10.0 mi ESE 8.1 mph - N/A   Partly Cloudy
12:53 PM 87.1 °F 92.0 °F 70.0 °F 57% 30.07 in 10.0 mi East 11.5 mph - N/A   Partly Cloudy
1:53 PM 87.1 °F 92.0 °F 70.0 °F 57% 30.06 in 10.0 mi ESE 10.4 mph - N/A   Scattered Clouds
2:53 PM 86.0 °F 90.1 °F 69.1 °F 57% 30.04 in 10.0 mi East 10.4 mph - N/A   Scattered Clouds
3:53 PM 87.1 °F 92.8 °F 71.1 °F 59% 30.03 in 10.0 mi East 11.5 mph - N/A   Scattered Clouds
4:53 PM 86.0 °F 90.7 °F 70.0 °F 59% 30.03 in 10.0 mi East 12.7 mph - N/A   Clear
5:53 PM 84.9 °F 89.4 °F 70.0 °F 61% 30.04 in 10.0 mi ESE 15.0 mph - N/A   Clear
6:53 PM 82.0 °F 85.9 °F 70.0 °F 67% 30.04 in 10.0 mi SE 10.4 mph - N/A   Clear
7:53 PM 81.0 °F 84.4 °F 70.0 °F 69% 30.06 in 10.0 mi ESE 9.2 mph - N/A   Clear
8:53 PM 80.1 °F 83.6 °F 71.1 °F 74% 30.07 in 10.0 mi SE 10.4 mph - N/A   Clear
9:53 PM 79.0 °F - 71.1 °F 77% 30.08 in 10.0 mi SE 9.2 mph - N/A   Clear
10:53 PM 78.1 °F - 71.1 °F 79% 30.07 in 10.0 mi SSE 3.5 mph - N/A   Clear
11:53 PM 78.1 °F - 72.0 °F 81% 30.06 in 10.0 mi ESE 4.6 mph - N/A   Clear